User: anonymous
Location: St Andrew
(49.4460°N, 2.5750°W)
Time: 22:35:18
(UTC+01:00)
Language:

Iridium 66 - Orbit

View from above orbital plane
View from above orbital plane
View from above satellite
View from above satellite

Ground track
Ground track

The orbit data is extracted from the following two-line orbital elements,

1 25289U 98021E   14294.47872353  .00000330  00000-0  11078-3 0  9058
2 25289 086.3938 269.0827 0002158 101.7167 012.2013 14.34220129866027
Epoch (UTC): 21 October 2014 11:29:21
Eccentricity: 0.0002158
inclination: 86.3938°
perigee height: 776 km
apogee height: 779 km
right ascension of ascending node: 269.0827°
argument of perigee: 101.7167°
revolutions per day: 14.34220129
mean anomaly at epoch: 12.2013°
orbit number at epoch: 86602

The dashed part of the orbit path shows where the satellite is in the earth's shadow,  

DLR